Regional Weather Roundup
Issued by NWS San Diego, CA

Home | Current Version | Previous Version | Text Only | Print | Product List | Glossary On
Versions: 1 2 3 4 5 6 7 8 9 10 11 12 13 14 15 16 17 18 19 20 21 22 23 24 25 26 27 28 29 30 31 32 33 34 35 36 37 38 39 40 41 42 43 44 45 46 47 48 49 50
000
ASUS46 KSGX 280111
RWRSGX

SAN DIEGO HOURLY WEATHER ROUNDUP
NATIONAL WEATHER SERVICE SAN DIEGO CA
600 PM PDT MON APR 27 2015

NOTE: "FAIR" INDICATES FEW OR NO CLOUDS BELOW 12,000 FEET WITH NO
SIGNIFICANT WEATHER AND/OR OBSTRUCTIONS TO VISIBILITY.

CAZ042-043-060-061-PZZ750-775-280200-

GREATER SAN DIEGO AREA

CITY           SKY/WX    TMP DP  RH WIND       PRES   REMARKS
LINDBERGH FLD  SUNNY     75  44  33 W13       29.89R
POINT LOMA       N/A     71  48  44 NW22        N/A
CHULA VISTA      N/A     78  46  31 CALM      29.81S
IMPERIAL BEACH MOSUNNY   72  54  53 W9        29.89S
BROWN FIELD    SUNNY     75  41  29 W12       29.88R
MIRAMAR MCAS   SUNNY     81  32  17 NW12      29.89S
MONTGOMERY FLD SUNNY     79  35  20 NW14      29.88S

$$

NORTH SAN DIEGO COUNTY

CITY           SKY/WX    TMP DP  RH WIND       PRES   REMARKS
CAMP PENDLETON SUNNY     81  28  14 W7        29.86S
OCEANSIDE AP   SUNNY     74  49  41 W7        29.86S
VISTA            N/A     77  43  28 W2        29.87S
CARLSBAD       SUNNY     76  43  30 NW6       29.88S
FALLBROOK        N/A     82  23  11 S7        29.87S
SAN MARCOS       N/A     77  41  27 NW9       29.87S
POWAY            N/A     79  37  21 NW3       29.90R

$$

EAST SAN DIEGO COUNTY

CITY           SKY/WX    TMP DP  RH WIND       PRES   REMARKS
RAMONA         SUNNY     75  33  21 W12       29.91R
SANTEE LAKES     N/A     80  35  20 NW12      29.88R
LA MESA          N/A     78  34  20 N12       29.82R
DESCANSO N       N/A     70  22  16 E6        29.82S
MT. LAGUNA OBS   N/A     56  15  20 N3        29.66S
CAMPO            N/A     73  17  12 NE16      29.92R

$$

ORANGE COUNTY AND THE LOS ANGELES BASIN

CITY           SKY/WX    TMP DP  RH WIND       PRES   REMARKS
JOHN WAYNE AP  SUNNY     81  25  12 W8G18     29.87S
LAKE FOREST FR   N/A     81  29  15 W3        29.78S
SANTA ANA        N/A     83  33  16 W1        29.83R
HUNTINGTON BCH   N/A     79  42  26 W6        29.89S
LOS ALAMITOS   FAIR      81  33  17 W16G22    29.88R
FULLERTON      SUNNY     81  29  15 VRB6G18   29.87R
LONG BEACH     SUNNY     80  32  17 W15       29.88S
L.A. AP        SUNNY     70  46  42 W16       29.90S
L.A. DOWNTOWN  SUNNY     77  36  22 VRB6      29.89R

$$

THE INLAND EMPIRE

CITY           SKY/WX    TMP DP  RH WIND       PRES   REMARKS
CORONA         SUNNY     82  35  18 W12G18    29.88R
CHINO          SUNNY     84  34  16 W15       29.88R
ONTARIO        SUNNY     82  32  16 W16       29.88S
RIVERSIDE AP   SUNNY     85  28  12 W8G17     29.87S
RIV CYN CREST    N/A     85  36  17 S8          N/A
MORENO VALLEY    N/A     82  26  13 SW7       29.87S
MARCH ARB      SUNNY     83  14   7 NW15      29.89S
HORSETHIEF CYN   N/A     83  21  10 N6        29.84F
MENIFEE          N/A     86  27  12 S8        29.93F
HEMET EAST       N/A     83  18   9 CALM      29.88S
FRENCH VALLEY  FAIR      82  32  16 S17       29.88F
TEMECULA         N/A     82  36  19 SW6       29.82S

$$

SAN BERNARDINO AND RIVERSIDE COUNTY MOUNTAINS

CITY           SKY/WX    TMP DP  RH WIND       PRES   REMARKS
BIG BEAR AP    SUNNY     54  10  17 NE9       30.16R

$$

SOUTHERN DESERT INCLUDING THE COACHELLA VALLEY

CITY           SKY/WX    TMP DP  RH WIND       PRES   REMARKS
PALM SPRINGS   SUNNY     90  10   5 VRB6      29.87F
THOUSAND PALMS   N/A     91  15   6 SW5       29.84F
THERMAL        SUNNY     90  15   6 W9        29.81F
BLYTHE         SUNNY     88  23   9 N9        29.83S
IMPERIAL AP    SUNNY     87  27  11 NW7       29.82F
EL CENTRO NAS  SUNNY     88  18   7 NW7       29.85F
YUMA AZ        SUNNY     89  24   9 NW10      29.83S
MEXICALI       SUNNY     86  21   9 W10       29.84S

$$

UPPER DESERT

CITY           SKY/WX    TMP DP  RH WIND       PRES   REMARKS
VICTORVILLE AP SUNNY     75  14   9 NE8       30.00F
HESPERIA         N/A     74  18  12 N5        30.07F
APPLE VALLEY     N/A     74  14  10 N3        30.03F
PALMDALE       SUNNY     78  12   8 E12       29.99S
LANCASTER      SUNNY     78  13   8 E14G22    29.98F
EDWARDS AFB    SUNNY     79   7   6 E12       29.96S
DAGGETT        SUNNY     81   9   6 N8        29.95F
29 PALMS N     SUNNY     78  18  10 NW8       30.01S
NEEDLES        SUNNY     87  24  10 N15G24    29.86S

$$

REGIONAL REPORTS

CITY           SKY/WX    TMP DP  RH WIND       PRES   REMARKS
SANTA BARBARA  SUNNY     79  38  22 W15       29.89F
SANDBERG       SUNNY     72  13  10 E10G22    30.07F
MT. WILSON       N/A     70  28  21 NW2         N/A
LAS VEGAS NV   SUNNY     80  21  11 NE6       29.92F
PHOENIX AZ     MOSUNNY   85  36  17 SW7       29.81F
TIJUANA        SUNNY     77  32  19 W13       29.91R
ENSENADA NW      N/A     78  32  19 W3        29.82S

$$

OFFSHORE ISLANDS

CITY           SKY/WX    TMP DP  RH WIND       PRES   REMARKS
CATALINA ARPT  SUNNY     71  35  26 W15       29.96S
SAN CLEMENTE I SUNNY     70  57  63 W10       29.92S
SAN NICOLAS IS SUNNY    N/A N/A N/A SW8       29.92S

$$

MARINE AND OFFSHORE BUOY REPORTS

STATION/POSITION SKY/WX   TEMP    WIND        PRES    SWELL
                          AIR SEA DIR/SP/G            HT/PER/DIR
                          (F)     (DEG/KT/KT) (MB)    (FT/S/D)
TANNER BANKS               64 65  310/  6/  8 1013.0F   7/300/ 8
S CLEMENTE BASIN           66 64  270/ 12/ 12 1011.7F   5/280/ 8
SAN NICOLAS IS.               60                N/A     2/290/11
SO. S. ROSA ISLA           59 59  320/ 12/ 14 1012.5F   3/ 8
W. S. BARBARA CH           56 54  320/ 16/ 17 1013.0S   5/300/ 8
S. MONICA BASIN            65 63  310/  6/  6 1012.7F   2/280/ 8
S PEDRO CHANNEL               62                N/A
DANA POINT                    65                N/A     2/200/14
OCEANSIDE OFFSHR              65                N/A     2/210/14
TORREY PINES OTR              66                N/A     2/210/14
LA JOLLA 1                 69 62   20/  9/ 10 1011.7F
MISSION BAY BUOY              65                N/A     2/260/11
SAN DIEGO BAY                 68              1012.1R
POINT LOMA SOUTH              65                N/A     2/260/11

$$




USA.gov is the U.S. government's official web portal to all federal, state and local government web resources and services.